Location: Sternwarte ZA, Rosenfeld-Brittheim
(48.2889°N, 8.6789°E)
Time: 07:05:13
(UTC+01:00)

ISS - Pass Details

Date: 10 November 2018
Orbit: 401 x 409 km, 51.6° (Epoch: 21 November)

Event Time Altitude Azimuth Distance (km) Brightness Sun altitude
Exits shadow 04:25:21 14° 78° (ENE) 1,236 -0.6 -29.9°
Drops below altitude 10° 04:25:57 10° 81° (E) 1,464 -0.1 -29.8°
Sets 04:28:05 0° 88° (E) 2,326 1.2 -29.4°
